GW0360 Weather Reports


Display with metric or nautical units.
time (UTC)temp
F
wind
direction
speed
MPH
gust
MPH
rain 1hr
in
rain 24hr
in
rain mn
in
humidity
%
barometer
mb
20260507132543 52 187 2.0 7.0 0.00 0.00 0.00 72 1016.9
20260507132043 51 227 2.0 7.0 0.00 0.00 0.00 74 1016.9
20260507131600 51 202 1.0 8.0 0.00 0.00 0.00 75 1016.9
20260507131044 50 248 3.0 8.0 0.00 0.00 0.00 76 1017.0
20260507130543 49 0 1.0 8.0 0.00 0.00 0.00 76 1016.9
20260507130107 49 228 2.0 9.0 0.00 0.00 0.00 77 1016.9
20260507125544 49 244 2.0 9.0 0.00 0.00 0.00 77 1016.9
20260507125045 48 199 2.0 6.0 0.00 0.00 0.00 78 1016.8
20260507124554 48 0 1.0 5.0 0.00 0.00 0.00 78 1016.8
20260507124044 47 219 2.0 5.0 0.00 0.00 0.00 79 1016.8
20260507123544 47 183 0.0 5.0 0.00 0.00 0.00 79 1016.9
20260507123057 47 0 1.0 5.0 0.00 0.00 0.00 80 1016.8
20260507122545 46 200 1.0 4.0 0.00 0.00 0.00 80 1016.9
20260507122047 46 236 1.0 4.0 0.00 0.00 0.00 81 1016.9
20260507121601 46 0 0.0 4.0 0.00 0.00 0.00 81 1016.9
20260507121044 45 0 0.0 4.0 0.00 0.00 0.00 82 1016.9
20260507120544 45 163 0.0 3.0 0.00 0.00 0.00 82 1017.0
20260507120053 45 183 0.0 3.0 0.00 0.00 0.00 82 1017.1
20260507115545 45 202 0.0 3.0 0.00 0.01 0.00 82 1017.0
20260507115045 44 192 0.0 3.0 0.00 0.01 0.00 83 1017.0
20260507114605 44 223 0.0 3.0 0.00 0.01 0.00 83 1016.9
20260507114047 44 0 0.0 3.0 0.00 0.01 0.00 83 1017.0
20260507113546 44 198 0.0 2.0 0.00 0.01 0.00 82 1017.0
20260507113055 44 0 0.0 4.0 0.00 0.01 0.00 82 1016.9
20260507112545 44 0 0.0 4.0 0.00 0.01 0.00 82 1016.9
20260507112045 45 0 1.0 4.0 0.00 0.01 0.00 81 1017.0
20260507111601 45 0 0.0 2.0 0.00 0.01 0.00 81 1016.9
20260507111045 45 0 0.0 2.0 0.00 0.01 0.00 80 1016.9
20260507110545 45 229 0.0 4.0 0.00 0.01 0.00 80 1017.0
20260507110052 45 0 0.0 4.0 0.00 0.01 0.00 80 1016.9
20260507105545 45 0 1.0 4.0 0.00 0.01 0.00 79 1016.8
20260507105043 45 0 0.0 2.0 0.00 0.01 0.00 79 1016.9
20260507104551 46 0 0.0 4.0 0.00 0.01 0.00 79 1016.9
20260507104044 46 0 0.0 4.0 0.00 0.01 0.00 78 1016.9
20260507103544 46 0 0.0 4.0 0.00 0.01 0.00 78 1016.8
20260507103049 46 178 0.0 4.0 0.00 0.01 0.00 78 1017.0
20260507102544 46 190 0.0 4.0 0.00 0.01 0.00 78 1016.9
20260507102044 46 206 0.0 4.0 0.00 0.01 0.00 78 1016.9
20260507101611 46 223 1.0 4.0 0.00 0.01 0.00 78 1017.0
20260507101045 46 0 1.0 4.0 0.00 0.01 0.00 77 1017.0
20260507100545 46 198 0.0 4.0 0.00 0.01 0.00 77 1017.1
20260507100051 46 223 0.0 3.0 0.00 0.01 0.00 77 1017.0
20260507095544 46 0 0.0 3.0 0.00 0.01 0.00 77 1017.1
20260507095044 46 217 0.0 2.0 0.00 0.01 0.00 77 1017.0
20260507094553 46 0 0.0 3.0 0.00 0.01 0.00 76 1017.1
20260507094043 47 0 0.0 3.0 0.00 0.01 0.00 76 1017.0
20260507093543 47 227 0.0 2.0 0.00 0.01 0.00 76 1017.2
20260507093057 47 0 0.0 2.0 0.00 0.01 0.00 75 1017.1
20260507092545 47 0 0.0 3.0 0.00 0.01 0.00 75 1017.1
20260507092044 47 0 0.0 3.0 0.00 0.01 0.00 74 1017.2
20260507091551 48 195 0.0 2.0 0.00 0.01 0.00 73 1017.1
20260507091044 48 215 0.0 2.0 0.00 0.01 0.00 73 1017.3
20260507090544 47 0 0.0 2.0 0.00 0.01 0.00 73 1017.3
20260507090110 48 0 0.0 2.0 0.00 0.01 0.00 72 1017.4
20260507085545 48 0 0.0 2.0 0.00 0.01 0.00 72 1017.4
20260507085044 48 0 0.0 3.0 0.00 0.01 0.00 71 1017.4
20260507084552 49 0 0.0 3.0 0.00 0.01 0.00 71 1017.3
20260507084045 49 228 0.0 4.0 0.00 0.01 0.00 70 1017.4
20260507083545 49 234 0.0 4.0 0.00 0.01 0.00 70 1017.4
20260507083052 49 252 0.0 4.0 0.00 0.01 0.00 70 1017.5
20260507082545 49 0 0.0 4.0 0.00 0.01 0.00 70 1017.5
20260507082045 49 0 1.0 4.0 0.00 0.01 0.00 71 1017.6
20260507081553 48 238 0.0 3.0 0.00 0.01 0.00 71 1017.6
20260507081047 49 204 0.0 4.0 0.00 0.01 0.00 71 1017.6
20260507080545 49 0 0.0 4.0 0.00 0.01 0.00 71 1017.6
20260507080055 49 0 0.0 6.0 0.00 0.01 0.00 70 1017.5
20260507075544 49 243 0.0 6.0 0.00 0.01 0.00 70 1017.5
20260507075044 49 226 1.0 4.0 0.00 0.01 0.00 70 1017.6
20260507074557 48 242 0.0 4.0 0.00 0.01 0.00 70 1017.6
20260507074043 48 0 0.0 4.0 0.00 0.01 0.00 71 1017.6
20260507073540 48 0 0.0 2.0 0.00 0.01 0.00 72 1017.6
20260507073049 47 0 0.0 1.0 0.00 0.01 0.00 72 1017.5
20260507072543 48 0 0.0 1.0 0.00 0.01 0.00 71 1017.6
20260507072040 48 0 0.0 1.0 0.00 0.01 0.00 70 1017.6
20260507071553 49 0 0.0 1.0 0.00 0.01 0.00 69 1017.6
20260507071043 49 0 0.0 1.0 0.00 0.01 0.00 68 1017.8
20260507070541 49 0 0.0 3.0 0.00 0.01 0.00 67 1017.9
20260507070056 50 0 0.0 3.0 0.00 0.01 0.00 67 1017.9
20260507065540 50 238 0.0 3.0 0.00 0.01 0.00 67 1017.9
20260507065040 50 0 0.0 3.0 0.00 0.01 0.00 67 1017.9
20260507064606 50 0 0.0 3.0 0.00 0.01 0.00 67 1018.0
20260507064041 50 0 0.0 5.0 0.00 0.01 0.00 66 1018.1
20260507063540 50 0 1.0 5.0 0.00 0.01 0.00 66 1018.1
20260507063054 50 231 0.0 3.0 0.00 0.01 0.00 66 1018.1
20260507062541 50 0 0.0 3.0 0.00 0.01 0.00 66 1018.1
20260507062041 51 274 0.0 3.0 0.00 0.01 0.00 65 1018.2
20260507061553 51 324 0.0 3.0 0.00 0.01 0.00 65 1018.3
20260507061041 51 0 0.0 3.0 0.00 0.01 0.00 64 1018.2
20260507060540 51 236 0.0 4.0 0.00 0.01 0.00 64 1018.3
20260507060054 51 0 0.0 4.0 0.00 0.01 0.00 63 1018.5
20260507055541 51 303 0.0 2.0 0.00 0.01 0.00 63 1018.4
20260507055040 51 342 0.0 3.0 0.00 0.01 0.00 62 1018.3
20260507054604 51 0 0.0 3.0 0.00 0.01 0.00 62 1018.4
20260507054042 51 0 0.0 3.0 0.00 0.01 0.00 62 1018.3
20260507053540 51 0 0.0 3.0 0.00 0.01 0.00 62 1018.3
20260507053047 51 0 0.0 2.0 0.00 0.01 0.00 62 1018.3
20260507052543 51 245 0.0 2.0 0.00 0.01 0.00 63 1018.5
20260507052040 51 0 0.0 2.0 0.00 0.01 0.00 63 1018.4
20260507051547 50 0 0.0 2.0 0.00 0.01 0.00 64 1018.4
20260507051041 50 0 0.0 2.0 0.00 0.01 0.00 63 1018.4
20260507050542 50 0 0.0 2.0 0.00 0.01 0.00 63 1018.4
20260507050052 50 0 0.0 2.0 0.00 0.01 0.00 63 1018.4
20260507045545 50 0 0.0 2.0 0.00 0.02 0.01 63 1018.4
20260507045041 50 0 0.0 2.0 0.00 0.02 0.01 63 1018.5
20260507044547 50 0 0.0 2.0 0.00 0.02 0.01 62 1018.4
20260507044043 50 0 0.0 2.0 0.00 0.02 0.01 63 1018.3
20260507043547 50 0 0.0 2.0 0.00 0.02 0.01 62 1018.5
20260507043058 50 0 0.0 2.0 0.00 0.02 0.01 62 1018.4
20260507042545 50 0 0.0 2.0 0.00 0.02 0.01 62 1018.4
20260507042044 50 0 0.0 2.0 0.00 0.02 0.01 62 1018.5
20260507041603 50 0 0.0 2.0 0.00 0.02 0.01 63 1018.6
20260507041045 49 0 0.0 0.0 0.00 0.02 0.01 63 1018.5
20260507040545 50 0 0.0 0.0 0.00 0.02 0.01 63 1018.6
20260507040057 50 0 0.0 0.0 0.00 0.02 0.01 62 1018.7
20260507035545 50 0 0.0 0.0 0.00 0.03 0.01 62 1018.5
20260507035044 50 0 0.0 0.0 0.00 0.03 0.01 62 1018.4
20260507034556 50 0 0.0 2.0 0.00 0.03 0.01 61 1018.5
20260507034044 50 0 0.0 2.0 0.00 0.03 0.01 60 1018.5
20260507033544 50 0 0.0 2.0 0.00 0.03 0.01 60 1018.4
20260507033053 49 0 0.0 1.0 0.00 0.03 0.01 62 1018.6
20260507032544 49 0 0.0 0.0 0.00 0.03 0.01 64 1018.6
20260507032044 49 0 0.0 1.0 0.00 0.03 0.01 65 1018.6
20260507031552 49 0 0.0 1.0 0.00 0.03 0.01 64 1018.6
20260507031045 49 0 0.0 1.0 0.00 0.03 0.01 63 1018.7
20260507030544 48 0 0.0 1.0 0.00 0.03 0.01 64 1018.6
20260507025545 48 0 0.0 0.0 0.00 0.03 0.01 66 1018.5
20260507025044 48 0 0.0 0.0 0.00 0.03 0.01 65 1018.5
20260507024559 48 0 0.0 0.0 0.00 0.03 0.01 65 1018.3
20260507024044 48 0 0.0 0.0 0.00 0.03 0.01 64 1018.3
20260507023544 48 0 0.0 0.0 0.00 0.03 0.01 63 1018.3
20260507023111 48 0 0.0 0.0 0.00 0.03 0.01 64 1018.2
20260507022544 48 0 0.0 0.0 0.00 0.03 0.01 64 1018.1
20260507022044 49 0 0.0 0.0 0.00 0.03 0.01 63 1018.3
20260507021557 49 0 0.0 0.0 0.00 0.03 0.01 61 1018.1
20260507021044 49 0 0.0 0.0 0.00 0.03 0.01 61 1018.2
20260507020544 49 0 0.0 0.0 0.00 0.03 0.01 60 1018.0
20260507020057 50 0 0.0 0.0 0.00 0.03 0.01 59 1018.0
20260507015544 50 0 0.0 0.0 0.00 0.03 0.01 58 1017.9
20260507015044 50 0 0.0 0.0 0.00 0.03 0.01 58 1017.9
20260507014606 51 0 0.0 0.0 0.00 0.03 0.01 57 1017.8
20260507014044 51 0 0.0 0.0 0.00 0.03 0.01 55 1017.8
20260507013544 51 0 0.0 0.0 0.00 0.03 0.01 54 1017.7
20260507013112 52 0 0.0 0.0 0.00 0.03 0.01 53 1017.6
20260507012541 52 0 0.0 0.0 0.00 0.03 0.01 52 1017.7
20260507012040 53 0 0.0 0.0 0.00 0.03 0.01 51 1017.6
20260507011551 54 0 0.0 0.0 0.00 0.03 0.01 50 1017.7
20260507011044 55 0 0.0 0.0 0.00 0.03 0.01 46 1017.7
20260507010544 55 0 0.0 0.0 0.00 0.03 0.01 44 1017.7
20260507010052 56 0 0.0 0.0 0.00 0.03 0.01 43 1017.7
20260507005543 56 0 0.0 3.0 0.00 0.03 0.01 41 1017.8
20260507005044 57 0 0.0 3.0 0.00 0.03 0.01 40 1017.8
20260507004550 57 0 0.0 3.0 0.00 0.03 0.01 40 1017.8
20260507004044 58 0 0.0 3.0 0.00 0.03 0.01 37 1017.6
20260507003544 58 0 0.0 3.0 0.00 0.03 0.01 35 1017.6
20260507003052 58 316 0.0 4.0 0.00 0.03 0.01 38 1017.5
20260507002543 58 285 0.0 4.0 0.00 0.03 0.01 37 1017.6
20260507002043 58 313 0.0 2.0 0.00 0.03 0.01 37 1017.7
20260507001607 58 0 0.0 2.0 0.00 0.03 0.01 37 1017.6
20260507001047 59 286 0.0 1.0 0.00 0.03 0.01 36 1017.6
20260507000545 59 0 0.0 4.0 0.00 0.03 0.01 35 1017.6
20260507000052 59 0 0.0 4.0 0.00 0.03 0.01 35 1017.5
20260506235544 59 0 0.0 4.0 0.00 0.03 0.01 38 1017.5
20260506235044 59 0 0.0 4.0 0.00 0.03 0.01 36 1017.6
20260506234554 59 0 0.0 5.0 0.00 0.03 0.01 35 1017.7
20260506234048 60 0 0.0 5.0 0.00 0.03 0.01 36 1017.7
20260506233544 60 0 1.0 5.0 0.00 0.03 0.01 36 1017.8
20260506233102 60 321 0.0 5.0 0.00 0.03 0.01 38 1017.7
20260506232544 60 0 0.0 4.0 0.00 0.03 0.01 34 1017.7
20260506232044 60 343 0.0 5.0 0.00 0.03 0.01 35 1017.9
20260506231552 60 0 0.0 5.0 0.00 0.03 0.01 38 1017.8
20260506231044 60 157 0.0 3.0 0.00 0.03 0.01 35 1017.7
20260506230544 60 0 0.0 3.0 0.00 0.03 0.01 34 1017.8
20260506230056 60 0 0.0 4.0 0.00 0.03 0.01 35 1017.9
20260506225544 60 0 0.0 4.0 0.00 0.03 0.01 35 1017.9
20260506225041 60 0 0.0 3.0 0.00 0.03 0.01 35 1017.9
20260506224554 59 0 0.0 5.0 0.00 0.03 0.01 35 1017.9
20260506224043 60 40 1.0 5.0 0.00 0.03 0.01 32 1017.9
20260506223547 61 317 1.0 6.0 0.00 0.03 0.01 34 1017.8
20260506223113 61 355 0.0 6.0 0.00 0.03 0.01 34 1017.9
20260506222544 61 304 1.0 4.0 0.00 0.03 0.01 34 1017.8
20260506222044 61 319 1.0 4.0 0.00 0.03 0.01 34 1017.8
20260506221602 61 0 0.0 4.0 0.00 0.03 0.01 34 1017.9
20260506221044 61 0 0.0 6.0 0.00 0.03 0.01 34 1017.9
20260506220544 61 19 1.0 6.0 0.00 0.03 0.01 35 1017.9
20260506220056 61 350 0.0 3.0 0.00 0.03 0.01 34 1018.0
20260506215544 61 0 0.0 3.0 0.00 0.03 0.01 33 1018.0
20260506215043 62 355 0.0 3.0 0.00 0.03 0.01 35 1018.1
20260506214604 61 0 0.0 2.0 0.00 0.03 0.01 34 1018.0
20260506214045 61 0 0.0 3.0 0.00 0.03 0.01 33 1018.1
20260506213545 61 0 0.0 5.0 0.00 0.03 0.01 34 1018.2
20260506213054 61 36 0.0 5.0 0.00 0.03 0.01 35 1018.2
20260506212541 61 11 0.0 6.0 0.00 0.03 0.01 36 1018.2
20260506212044 62 0 0.0 6.0 0.00 0.03 0.01 32 1018.4
20260506211556 62 349 1.0 6.0 0.00 0.03 0.01 35 1018.4
20260506211041 62 24 0.0 4.0 0.00 0.03 0.01 34 1018.5
20260506210544 63 314 0.0 4.0 0.00 0.03 0.01 34 1018.6
20260506210052 62 313 0.0 8.0 0.00 0.03 0.01 33 1018.7
20260506205544 63 0 2.0 8.0 0.00 0.03 0.01 34 1018.8
20260506205044 61 38 1.0 5.0 0.00 0.03 0.01 34 1018.8
20260506204555 61 137 0.0 6.0 0.00 0.03 0.01 35 1018.9
20260506204043 61 0 0.0 6.0 0.00 0.03 0.01 36 1019.0
20260506203543 62 48 1.0 6.0 0.00 0.03 0.01 31 1019.1
20260506203100 62 0 2.0 7.0 0.00 0.03 0.01 36 1019.2
20260506202546 62 0 1.0 7.0 0.00 0.03 0.01 31 1019.1
20260506202044 62 0 0.0 3.0 0.00 0.03 0.01 39 1019.4
20260506201552 61 350 1.0 6.0 0.00 0.03 0.01 37 1019.3
20260506201047 61 0 0.0 9.0 0.00 0.03 0.01 32 1019.4
20260506200543 63 288 2.0 9.0 0.00 0.03 0.01 33 1019.6
20260506200135 62 275 1.0 11.0 0.00 0.03 0.01 34 1019.7
20260506195543 62 340 1.0 11.0 0.00 0.03 0.01 35 1019.8
20260506195046 61 0 2.0 11.0 0.00 0.03 0.01 34 1019.6
20260506194550 62 347 0.0 8.0 0.00 0.03 0.01 36 1019.7
20260506194043 62 325 2.0 8.0 0.00 0.03 0.01 36 1019.5
20260506193546 61 24 0.0 4.0 0.00 0.03 0.01 36 1019.6
20260506193051 59 0 1.0 6.0 0.00 0.03 0.01 34 1019.6
20260506192543 60 58 1.0 7.0 0.00 0.03 0.01 34 1019.7
20260506192043 61 0 1.0 7.0 0.00 0.03 0.01 35 1019.5
20260506191552 60 20 1.0 4.0 0.00 0.03 0.01 39 1019.5
20260506191044 61 0 1.0 6.0 0.00 0.03 0.01 35 1019.4
20260506190546 61 27 1.0 6.0 0.00 0.03 0.01 37 1019.6
20260506190055 58 0 2.0 5.0 0.00 0.03 0.01 35 1019.6
20260506185548 60 39 0.0 4.0 0.00 0.03 0.01 39 1019.7
20260506185044 59 0 0.0 5.0 0.00 0.03 0.01 39 1019.7
20260506184553 59 13 1.0 6.0 0.00 0.03 0.01 34 1019.8
20260506184044 59 19 1.0 6.0 0.00 0.03 0.01 35 1019.8
20260506183544 60 42 0.0 6.0 0.00 0.03 0.01 34 1019.8
20260506183055 59 0 1.0 8.0 0.00 0.03 0.01 33 1019.8
20260506182544 59 72 1.0 8.0 0.00 0.03 0.01 34 1019.9
20260506182044 60 338 0.0 8.0 0.00 0.03 0.01 35 1019.8
20260506181554 59 244 1.0 8.0 0.00 0.03 0.01 33 1019.9
20260506181044 59 331 2.0 8.0 0.00 0.03 0.01 37 1019.8
20260506180545 60 35 0.0 7.0 0.00 0.03 0.01 39 1020.0
20260506175546 59 173 0.0 4.0 0.00 0.03 0.01 39 1020.0
20260506175044 58 71 0.0 9.0 0.00 0.03 0.01 38 1020.0
20260506174549 57 0 0.0 9.0 0.00 0.03 0.01 36 1020.1
20260506174047 59 352 2.0 8.0 0.00 0.03 0.01 36 1020.1
20260506173544 58 0 0.0 5.0 0.00 0.03 0.01 36 1020.2
20260506173106 58 40 1.0 5.0 0.00 0.03 0.01 36 1020.1
20260506172546 58 338 0.0 5.0 0.00 0.03 0.01 39 1020.1
20260506172044 57 0 1.0 4.0 0.00 0.03 0.01 38 1020.2
20260506171558 56 51 1.0 4.0 0.00 0.03 0.01 39 1020.3
20260506171044 56 29 0.0 4.0 0.00 0.03 0.01 40 1020.4
20260506170543 56 5 1.0 4.0 0.00 0.03 0.01 41 1020.3
20260506170052 56 0 0.0 5.0 0.00 0.03 0.01 42 1020.4
20260506165544 55 0 0.0 5.0 0.00 0.04 0.01 40 1020.3
20260506165044 54 60 1.0 3.0 0.00 0.04 0.01 39 1020.4
20260506164558 54 350 0.0 3.0 0.00 0.04 0.01 43 1020.3
20260506164043 54 46 0.0 4.0 0.00 0.04 0.01 43 1020.5
20260506163543 54 306 0.0 5.0 0.00 0.04 0.01 43 1020.5
20260506163106 54 40 1.0 5.0 0.00 0.04 0.01 43 1020.4
20260506162544 55 0 0.0 4.0 0.00 0.04 0.01 45 1020.4
20260506162045 55 0 0.0 4.0 0.00 0.04 0.01 46 1020.4
20260506161559 55 0 0.0 7.0 0.00 0.04 0.01 45 1020.4
20260506161043 55 325 1.0 7.0 0.00 0.04 0.01 46 1020.4
20260506160545 55 326 1.0 5.0 0.00 0.04 0.01 45 1020.3
20260506160104 55 0 0.0 4.0 0.00 0.04 0.01 50 1020.2
20260506155551 54 49 0.0 4.0 0.00 0.05 0.01 49 1020.1
20260506155043 54 0 0.0 4.0 0.00 0.05 0.01 50 1020.1
20260506154552 54 0 0.0 7.0 0.00 0.05 0.01 53 1020.2
20260506154044 54 348 0.0 7.0 0.00 0.05 0.01 50 1020.2
20260506153545 55 302 1.0 5.0 0.00 0.05 0.01 52 1020.2
20260506153048 54 0 1.0 9.0 0.00 0.05 0.01 54 1020.1
20260506152543 54 318 1.0 9.0 0.00 0.05 0.01 55 1020.1
20260506152043 54 325 0.0 4.0 0.00 0.05 0.01 53 1020.1
20260506151554 56 74 1.0 3.0 0.00 0.05 0.01 54 1019.9
20260506151043 55 348 0.0 2.0 0.00 0.05 0.01 56 1019.8
20260506150541 54 0 0.0 3.0 0.00 0.05 0.01 58 1019.8
20260506150048 54 0 0.0 5.0 0.00 0.05 0.01 56 1019.8
20260506145541 54 0 0.0 6.0 0.00 0.06 0.01 53 1019.8
20260506145043 53 0 1.0 6.0 0.00 0.06 0.01 62 1019.9
20260506144553 52 318 2.0 6.0 0.00 0.06 0.01 57 1019.9
20260506144043 52 0 1.0 6.0 0.00 0.06 0.01 62 1019.8
20260506143544 51 308 3.0 6.0 0.00 0.06 0.01 64 1019.9
20260506143054 51 220 2.0 7.0 0.00 0.06 0.01 65 1019.8
20260506142543 51 288 1.0 7.0 0.00 0.06 0.01 65 1019.8
20260506142040 51 304 0.0 4.0 0.00 0.06 0.01 70 1019.8
20260506141546 50 0 0.0 4.0 0.00 0.06 0.01 69 1019.8
20260506141040 50 0 0.0 4.0 0.00 0.06 0.01 71 1019.7
20260506140543 49 276 0.0 6.0 0.00 0.06 0.01 74 1019.9
20260506140048 49 0 1.0 6.0 0.00 0.06 0.01 72 1019.8
20260506135543 49 0 0.0 4.0 0.00 0.12 0.01 73 1019.8
20260506135040 48 0 1.0 4.0 0.00 0.12 0.01 74 1019.7
20260506134614 48 0 1.0 6.0 0.00 0.12 0.01 76 1019.5
20260506134046 48 0 0.0 6.0 0.00 0.12 0.01 78 1019.5
20260506133541 47 292 0.0 3.0 0.00 0.12 0.01 79 1019.4
20260506133051 47 0 0.0 4.0 0.00 0.12 0.01 80 1019.3